[[{"header":{"parameterUnit":"m.s-1","parameterCategory":1,"la1":30.2991,"la2":30.254,"lo1":-89.0895,"lo2":-89.0444,"dy":0.0017,"dx":0.0017,"nx":28,"ny":28,"refTime":"2023-09-02T03:00:00:Z","depth":0,"parameterNumber":2,"parameterNumberName":"U-component_of_WINDS"},"data":[0,0,0,0,0,0,0,0,0,0,0,0,0,0,0,0,0,0,0,0,0,0,0,0,0,0,0,0,0,0,0,0,0,0,0,0,0,0,0,0,0,0,0,0,0,0,0,0,0,0,0,0,0,0,0,0,0,0,-4.44,-4.44,0,-4.4384,-4.4383,-4.4383,-4.4231,-4.4227,-4.4223,-4.422,-4.4207,-4.421,-4.4213,0,0,0,0,0,0,0,0,0,0,0,0,0,-4.4303,-4.4305,-4.44,-4.44,-4.44,-4.4384,-4.4383,-4.4383,-4.4232,-4.4227,-4.4222,-4.4218,-4.4206,-4.421,-4.4213,0,0,0,0,0,0,0,0,0,0,0,0,0,-4.4322,-4.4306,-4.44,-4.4322,-4.4315,-4.4384,-4.4383,-4.4383,-4.4233,-4.4227,-4.4221,-4.4216,-4.4205,-4.4209,-4.4214,-4.4357,0,0,-4.4229,-4.4231,0,0,0,0,0,0,0,0,-4.4321,-4.4325,-4.4334,-4.4328,-4.432,-4.4303,-4.4344,-4.4375,-4.4234,-4.4264,-4.422,-4.4213,-4.4244,-4.4245,-4.4255,-4.4357,-4.4356,-4.4229,-4.4232,-4.4234,-4.4235,0,0,0,0,0,0,0,-4.432,-4.4325,-4.4394,-4.4334,-4.4326,-4.4289,-4.4285,-4.4349,-4.4286,-4.4261,-4.425,-4.425,-4.4239,-4.425,-4.4253,-4.4356,-4.4229,-4.4233,-4.4236,-4.4238,-4.4573,-4.4579,0,0,0,0,0,0,-4.4329,-4.4325,-4.4394,-4.4393,-4.4306,-4.4295,-4.4291,-4.4315,-4.4285,-4.4275,-4.4255,-4.4243,-4.4245,-4.4248,-4.4252,-4.4416,-4.4234,-4.4238,-4.4241,-4.4567,-4.4574,-4.4581,0,0,0,0,0,0,-4.4327,-4.4336,-4.4395,-4.4356,-4.4361,-4.4303,-4.433,-4.4317,-4.4328,-4.428,-4.4269,-4.4278,-4.4241,-4.4245,-4.4331,-4.4414,-4.4241,-4.4245,-4.456,-4.4569,-4.4577,-4.4747,0,0,0,0,0,0,-4.4325,-4.4337,-4.439,-4.4358,-4.4363,-4.4475,-4.4335,-4.4321,-4.4336,-4.4321,-4.4299,-4.429,-4.4236,-4.4325,-4.4336,-4.4417,-4.4249,-4.4552,-4.4564,-4.4575,-4.4734,-4.4761,-4.4784,0,0,0,0,0,-4.4322,-4.444,-4.4394,-4.4403,-4.4429,-4.4479,-4.4482,-4.4418,-4.4344,-4.4397,-4.4366,-4.429,-4.4403,-4.4335,-4.4347,-4.443,-4.4547,-4.4561,-4.4574,-4.4723,-4.4756,-4.4783,0,0,0,0,0,0,-4.4485,-4.4435,-4.4383,-4.4494,-4.4492,-4.4454,-4.4519,-4.4455,-4.4475,-4.446,-4.4379,-4.4376,-4.4474,-4.4461,-4.4386,-4.4566,-4.4462,-4.4478,-4.4571,-4.4602,-4.4627,-4.4627,-4.4253,0,0,0,0,0,-4.4534,-4.4578,-4.4532,-4.4635,-4.4636,-4.4578,-4.4598,-4.4548,-4.4543,-4.4542,-4.4517,-4.4517,-4.4551,-4.4576,-4.4606,-4.4732,-4.4724,-4.4794,-4.482,-4.484,-4.4855,-4.4919,-4.4949,-4.4625,-4.4625,-4.4625,0,0,-4.4636,-4.4613,-4.4646,-4.4667,-4.4659,-4.4707,-4.4579,-4.4635,-4.467,-4.4551,-4.463,-4.4612,-4.4606,-4.4712,-4.4757,-4.4704,-4.4943,-4.4858,-4.4874,-4.4878,-4.4936,-4.4967,-4.4994,-4.4634,-4.4633,-4.4631,0,0,-4.4844,-4.4833,-4.4915,-4.491,-4.4899,-4.486,-4.488,-4.4851,-4.4834,-4.4912,-4.4822,-4.4863,-4.4926,-4.4924,-4.4932,-4.5138,-4.5069,-4.5151,-4.5281,-4.5344,-4.537,-4.5392,-4.5464,-4.5491,-4.5166,-4.5166,-4.5167,0,-4.4972,-4.5039,-4.4966,-4.5028,-4.5039,-4.4931,-4.5014,-4.5014,-4.5015,-4.5025,-4.4965,-4.5039,-4.5028,-4.5131,-4.5181,-4.5191,-4.5211,-4.5152,-4.5372,-4.5393,-4.5413,-4.5481,-4.5508,-4.5176,-4.5175,-4.5174,-4.5173,0,-4.5196,-4.5244,-4.5312,-4.5313,-4.5332,-4.5405,-4.5343,-4.5371,-4.532,-4.5287,-4.5367,-4.5349,-4.5372,-4.5393,-4.5344,-4.5489,-4.5456,-4.5386,-4.5278,-4.5455,-4.5517,-4.5543,-4.519,-4.5187,-4.5184,-4.5181,0,0,-4.5507,-4.5465,-4.5491,-4.5489,-4.5469,-4.5506,-4.5573,-4.5594,-4.5619,-4.5624,-4.5677,-4.5732,-4.5665,-4.5674,-4.5624,-4.568,-4.5843,-4.5601,-4.56,-4.5646,-4.6,-4.6052,-4.6084,-4.5797,-4.5801,-4.5805,-4.6,0,-4.5706,-4.5817,-4.5753,-4.5873,-4.5916,-4.5814,-4.5872,-4.5867,-4.5838,-4.5871,-4.5839,-4.5878,-4.5788,-4.5793,-4.5843,-4.5812,-4.5912,-4.5797,-4.5846,-4.5849,-4.5849,-4.6116,-4.6172,-4.6357,-4.6024,-4.6028,-4.6031,0,-4.5953,-4.5965,-4.609,-4.6059,-4.6075,-4.6129,-4.6141,-4.6174,-4.6166,-4.6141,-4.615,-4.6086,-4.615,-4.6045,-4.6132,-4.6055,-4.6072,-4.6059,-4.6065,-4.6066,-4.595,-4.6123,-4.6414,-4.6441,-4.6069,-4.6066,-4.6063,0,-4.6166,-4.6214,-4.6293,-4.6295,-4.6262,-4.6302,-4.6291,-4.6276,-4.6292,-4.6304,-4.6314,-4.6335,-4.6346,-4.6363,-4.6306,-4.6235,-4.6401,-4.6291,-4.6381,-4.6383,-4.642,-4.6418,-4.6716,-4.6433,-4.6433,-4.6432,-4.6432,0,-4.6394,-4.6474,-4.6387,-4.6437,-4.6523,-4.6448,-4.6536,-4.6514,-4.6502,-4.6545,-4.6459,-4.6502,-4.6425,-4.646,-4.6416,-4.6494,-4.6501,-4.6482,-4.6469,-4.6489,-4.6491,-4.6497,-4.6483,-4.644,-4.6438,-4.6437,-4.6435,0,-4.6645,-4.6591,-4.6671,-4.6632,-4.6624,-4.669,-4.6657,-4.6701,-4.6665,-4.6721,-4.673,-4.6676,-4.6712,-4.6657,-4.6689,-4.6659,-4.6766,-4.6735,-4.6769,-4.6759,-4.6851,-4.6843,-4.7162,-4.72,-4.6895,-4.6898,-4.6901,0,-4.6794,-4.6852,-4.6819,-4.6841,-4.6833,-4.687,-4.6885,-4.6815,-4.6834,-4.6828,-4.6873,-4.6902,-4.6921,-4.6985,-4.6949,-4.6972,-4.6939,-4.705,-4.6942,-4.696,-4.6939,-4.6936,-4.6941,-4.7072,-4.7075,-4.7078,-4.7081,0,-4.7062,-4.7032,-4.7056,-4.7071,-4.7091,-4.71,-4.7103,-4.7126,-4.7051,-4.7078,-4.7113,-4.7128,-4.7159,-4.7189,-4.7203,-4.7191,-4.7124,-4.7115,-4.7137,-4.7157,-4.7173,-4.7164,-4.6827,-4.7108,-4.7105,-4.7103,-4.7102,-4.7101,-4.7265,-4.7311,-4.7294,-4.7324,-4.7318,-4.7322,-4.7361,-4.733,-4.7357,-4.7375,-4.7332,-4.7378,-4.7367,-4.7378,-4.7374,-4.741,-4.7361,-4.7393,-4.7401,-4.741,-4.7423,-4.7169,-4.7412,-4.7411,-4.7411,-4.741,-4.7409,0,-4.7527,-4.7511,-4.7539,-4.7544,-4.7567,-4.75,-4.75,-4.7524,-4.7564,-4.7559,-4.7579,-4.762,-4.7648,-4.7613,-4.7635,-4.767,-4.764,-4.7678,-4.7674,-4.7673,-4.7466,-4.7444,-4.7702,-4.7702,-4.7702,-4.7702,-4.7702,-4.7702,-4.7666,-4.774,-4.7708,-4.7778,-4.7761,-4.7804,-4.7809,-4.7812,-4.7807,-4.7855,-4.7877,-4.7854,-4.7837,-4.7857,-4.788,-4.7869,-4.7881,-4.793,-4.7909,-4.7716,-4.7687,-4.766,-4.7639,-4.7934,-4.7934,-4.8111,-4.8113,-4.8114]},{"header":{"parameterUnit":"m.s-1","parameterCategory":1,"la1":30.2991,"la2":30.254,"lo1":-89.0895,"lo2":-89.0444,"dy":0.0017,"dx":0.0017,"nx":28,"ny":28,"refTime":"2023-09-02T03:00:00:Z","depth":0,"parameterNumber":3,"parameterNumberName":"V-component_of_WINDS"},"data":[0,0,0,0,0,0,0,0,0,0,0,0,0,0,0,0,0,0,0,0,0,0,0,0,0,0,0,0,0,0,0,0,0,0,0,0,0,0,0,0,0,0,0,0,0,0,0,0,0,0,0,0,0,0,0,0,0,0,-0.9887,-0.9888,0,-1.0058,-1.006,-1.0062,-1.0173,-1.0174,-1.0174,-1.0175,-1.0347,-1.0351,-1.0355,0,0,0,0,0,0,0,0,0,0,0,0,0,-0.9652,-0.9655,-0.9886,-0.9888,-0.9891,-1.0058,-1.006,-1.0062,-1.0173,-1.0174,-1.0175,-1.0175,-1.0346,-1.0351,-1.0355,0,0,0,0,0,0,0,0,0,0,0,0,0,-0.9781,-0.9657,-0.9886,-0.9966,-0.9975,-1.0057,-1.006,-1.0063,-1.0173,-1.0174,-1.0175,-1.0176,-1.0344,-1.035,-1.0356,-1.0371,0,0,-1.0374,-1.0377,0,0,0,0,0,0,0,0,-0.9774,-0.979,-0.9952,-0.9961,-0.9971,-1.0095,-1.0041,-1.0166,-1.0172,-1.0097,-1.0175,-1.0176,-1.0262,-1.0275,-1.0305,-1.0379,-1.0387,-1.0374,-1.0378,-1.0381,-1.0382,0,0,0,0,0,0,0,-0.9765,-0.9783,-0.9954,-0.9954,-0.9966,-0.9992,-1.0012,-1.0065,-1.0172,-1.0104,-1.0113,-1.0132,-1.0268,-1.0299,-1.031,-1.0389,-1.0374,-1.038,-1.0383,-1.0386,-1.0485,-1.0484,0,0,0,0,0,0,-0.9743,-0.9775,-0.9949,-0.9959,-0.9873,-0.9996,-1.0018,-1.0054,-1.0172,-1.019,-1.013,-1.0136,-1.0288,-1.0303,-1.0316,-1.0342,-1.0381,-1.0386,-1.0389,-1.0486,-1.0485,-1.0484,0,0,0,0,0,0,-0.9738,-0.9758,-0.9942,-0.987,-0.9895,-0.9999,-1.0039,-1.0057,-1.0088,-1.0192,-1.0211,-1.0143,-1.029,-1.0308,-1.0357,-1.0349,-1.0389,-1.0394,-1.0487,-1.0485,-1.0484,-1.0392,0,0,0,0,0,0,-0.9731,-0.9755,-0.9763,-0.9869,-0.9898,-0.998,-1.0038,-1.006,-1.0099,-1.0108,-1.0208,-1.0226,-1.0292,-1.0348,-1.0363,-1.0358,-1.0399,-1.0488,-1.0486,-1.0485,-1.0396,-1.0388,-1.0381,0,0,0,0,0,-0.9722,-0.9729,-0.9762,-0.9783,-0.991,-0.998,-0.9996,-1.0073,-1.0098,-1.0105,-1.0172,-1.0223,-1.0348,-1.0352,-1.037,-1.0366,-1.0489,-1.0487,-1.0485,-1.04,-1.039,-1.0381,0,0,0,0,0,0,-0.9618,-0.9745,-0.9783,-0.9825,-0.9891,-0.9998,-1.001,-1.006,-1.0119,-1.0125,-1.0217,-1.0238,-1.0278,-1.0328,-1.033,-1.0388,-1.0424,-1.0426,-1.0354,-1.0345,-1.0337,-1.0323,-1.0404,0,0,0,0,0,-0.96,-0.9647,-0.9755,-0.9781,-0.9813,-0.9905,-0.9939,-0.9992,-1.0064,-1.0092,-1.0162,-1.0228,-1.0283,-1.0317,-1.0373,-1.0405,-1.0428,-1.0411,-1.0403,-1.0396,-1.0396,-1.0417,-1.041,-1.0477,-1.0477,-1.0477,0,0,-0.9563,-0.9638,-0.9662,-0.9762,-0.982,-0.9865,-0.9928,-0.9974,-1.0008,-1.0099,-1.0149,-1.0203,-1.0283,-1.0324,-1.0345,-1.0366,-1.0383,-1.0394,-1.0387,-1.0391,-1.0414,-1.0407,-1.0402,-1.0476,-1.0476,-1.0476,0,0,-0.9519,-0.9581,-0.961,-0.9666,-0.9753,-0.9815,-0.9822,-0.9922,-0.9962,-1.0015,-1.0083,-1.0125,-1.0217,-1.0272,-1.0312,-1.0289,-1.0338,-1.0305,-1.0263,-1.0282,-1.0276,-1.0272,-1.0264,-1.0259,-1.0304,-1.0304,-1.0304,0,-0.9462,-0.9534,-0.9618,-0.966,-0.9702,-0.9787,-0.9817,-0.9867,-0.9967,-0.9993,-1.0016,-1.0134,-1.0194,-1.0248,-1.0243,-1.0272,-1.0282,-1.0293,-1.0271,-1.0267,-1.0265,-1.0257,-1.0254,-1.0299,-1.03,-1.03,-1.0301,0,-0.9459,-0.9509,-0.9522,-0.9617,-0.9661,-0.9696,-0.9784,-0.9818,-0.9868,-0.9927,-0.9979,-1.0055,-1.0127,-1.0145,-1.0193,-1.0206,-1.0216,-1.0253,-1.0292,-1.0252,-1.0247,-1.0245,-1.0293,-1.0294,-1.0296,-1.0297,0,0,-0.9353,-0.9496,-0.9499,-0.9543,-0.9646,-0.9685,-0.9724,-0.9796,-0.9823,-0.9889,-0.9924,-1.0,-1.0035,-1.008,-1.0136,-1.0153,-1.0129,-1.0188,-1.0192,-1.0174,-1.0147,-1.0118,-1.0113,-1.0163,-1.0163,-1.0163,-1.014,0,-0.9324,-0.94,-0.9476,-0.9524,-0.957,-0.9653,-0.9687,-0.9752,-0.9809,-0.9856,-0.9918,-0.9971,-1.0014,-1.0041,-1.0062,-1.0128,-1.0125,-1.0131,-1.0195,-1.0196,-1.0171,-1.0111,-1.008,-1.0055,-1.0139,-1.0139,-1.0138,0,-0.9299,-0.9363,-0.9415,-0.9514,-0.9536,-0.9565,-0.9638,-0.9682,-0.9758,-0.9799,-0.9849,-0.9909,-0.9953,-0.9987,-1.005,-1.0052,-1.0083,-1.0119,-1.012,-1.0128,-1.0164,-1.0116,-1.0049,-1.0045,-1.0136,-1.0136,-1.0137,0,-0.9215,-0.9314,-0.9359,-0.9394,-0.951,-0.9529,-0.9578,-0.9656,-0.9694,-0.9758,-0.9783,-0.985,-0.9887,-0.9937,-1.0013,-1.0031,-1.0067,-1.0107,-1.01,-1.0098,-1.0103,-1.0101,-1.0039,-1.0124,-1.0124,-1.0124,-1.0124,0,-0.9174,-0.9202,-0.9323,-0.935,-0.9384,-0.9472,-0.9504,-0.956,-0.9629,-0.9667,-0.9743,-0.9777,-0.9876,-0.9922,-0.9982,-1.0024,-1.004,-1.0073,-1.0088,-1.0066,-1.0061,-1.0086,-1.009,-1.0123,-1.0124,-1.0124,-1.0124,0,-0.9085,-0.9167,-0.9221,-0.9327,-0.9354,-0.9375,-0.9466,-0.9495,-0.9556,-0.9604,-0.9621,-0.9717,-0.9775,-0.9856,-0.9939,-0.998,-1.0013,-1.0038,-0.9987,-0.9996,-0.9984,-0.9984,-0.9934,-0.9932,-1.0019,-1.0018,-1.0017,0,-0.9053,-0.9077,-0.9186,-0.9218,-0.9265,-0.9316,-0.9356,-0.9444,-0.9482,-0.9572,-0.9589,-0.9654,-0.971,-0.98,-0.9876,-0.994,-0.9967,-0.9945,-0.9977,-0.9953,-0.9965,-0.9963,-0.9965,-0.9937,-0.9935,-0.9934,-0.9933,0,-0.8986,-0.9026,-0.9081,-0.9151,-0.9197,-0.9256,-0.9318,-0.934,-0.9441,-0.948,-0.9542,-0.9585,-0.9671,-0.9734,-0.9808,-0.9858,-0.9912,-0.9923,-0.9925,-0.9901,-0.987,-0.9886,-0.9965,-0.9924,-0.9924,-0.9925,-0.9926,-0.9926,-0.8924,-0.895,-0.9031,-0.909,-0.9147,-0.9203,-0.9236,-0.9302,-0.9355,-0.9432,-0.9481,-0.9539,-0.9616,-0.9722,-0.9769,-0.9816,-0.9838,-0.984,-0.9841,-0.9839,-0.9831,-0.9864,-0.983,-0.983,-0.9831,-0.9831,-0.9831,0,-0.8861,-0.8917,-0.8971,-0.9057,-0.9103,-0.9152,-0.9224,-0.9259,-0.931,-0.9377,-0.9432,-0.9502,-0.9563,-0.9645,-0.9713,-0.9734,-0.9761,-0.9749,-0.9747,-0.9758,-0.9808,-0.98,-0.9726,-0.9726,-0.9726,-0.9726,-0.9726,-0.9726,-0.8833,-0.8878,-0.8928,-0.9002,-0.9058,-0.9117,-0.9154,-0.9206,-0.9261,-0.9336,-0.9388,-0.9442,-0.9515,-0.9588,-0.9646,-0.9669,-0.969,-0.967,-0.97,-0.9745,-0.9754,-0.9763,-0.9756,-0.9674,-0.9674,-0.9646,-0.9645,-0.9645]}]]